When you browse on this site, cookies collect data to enhance your experience and personalize the content and advertising you see.
Visit our Privacy Policy to learn more. By continuing to use the site, you agree to this use of cookies and data.
  • In Hungary
  • List of Countries
  • For 7 days
  • Water Temperature
  • Satellite Maps
  • Weather Map
  • News
  • Weather Widgets
  • user-avatar
    Login

    Hourly Weather Cergy-Pontoise

    Today, 21 March, Thursday

    Time Temperature Precipitation Wind Pressure Humidity
    00:00 +8°C° 0 mm 0 mps 771 mmHg 76%
    01:00 +9°C° 0 mm 1 mps 771 mmHg 78%
    02:00 +9°C° 0 mm 1 mps 771 mmHg 79%
    03:00 +9°C° 0 mm 1 mps 771 mmHg 81%
    04:00 +8°C° 0 mm 1 mps 771 mmHg 82%
    05:00 +8°C° 0 mm 1 mps 771 mmHg 83%
    06:00 +7°C° 0 mm 0 mps 771 mmHg 84%
    07:00 +9°C° 0 mm 1 mps 771 mmHg 79%
    08:00 +10°C° 0 mm 1 mps 771 mmHg 74%
    09:00 +12°C° 0 mm 1 mps 771 mmHg 68%
    10:00 +13°C° 0 mm 1 mps 771 mmHg 64%
    11:00 +14°C° 0 mm 2 mps 771 mmHg 59%
    12:00 +16°C° 0 mm 3 mps 771 mmHg 55%
    13:00 +16°C° 0 mm 3 mps 770 mmHg 55%
    14:00 +16°C° 0 mm 3 mps 770 mmHg 54%
    15:00 +17°C° 0 mm 3 mps 769 mmHg 54%
    16:00 +16°C° 0 mm 3 mps 769 mmHg 59%
    17:00 +14°C° 0 mm 3 mps 769 mmHg 64%
    18:00 +14°C° 0 mm 2 mps 769 mmHg 68%
    19:00 +13°C° 0 mm 2 mps 769 mmHg 72%
    20:00 +12°C° 0 mm 2 mps 769 mmHg 76%
    21:00 +12°C° 0 mm 2 mps 769 mmHg 80%
    22:00 +10°C° 0 mm 2 mps 769 mmHg 82%
    23:00 +10°C° 0 mm 2 mps 769 mmHg 84%

    Tomorrow, 22 March, Friday

    Time Temperature Precipitation Wind Pressure Humidity
    00:00 +9°C° 0 mm 2 mps 768 mmHg 87%
    01:00 +10°C° 0 mm 1 mps 768 mmHg 86%
    02:00 +9°C° 0 mm 1 mps 768 mmHg 85%
    03:00 +9°C° 0 mm 1 mps 768 mmHg 85%
    04:00 +9°C° 0 mm 1 mps 768 mmHg 83%
    05:00 +8°C° 0 mm 1 mps 768 mmHg 81%
    06:00 +8°C° 0 mm 1 mps 768 mmHg 79%
    07:00 +9°C° 0 mm 1 mps 768 mmHg 72%
    08:00 +11°C° 0 mm 1 mps 768 mmHg 65%
    09:00 +12°C° 0 mm 1 mps 768 mmHg 58%
    10:00 +13°C° 0 mm 1 mps 767 mmHg 53%
    11:00 +15°C° 0 mm 1 mps 767 mmHg 48%
    12:00 +16°C° 0 mm 0 mps 767 mmHg 43%
    13:00 +18°C° 0 mm 1 mps 767 mmHg 42%
    14:00 +18°C° 0 mm 1 mps 766 mmHg 40%
    15:00 +19°C° 0 mm 1 mps 766 mmHg 39%
    16:00 +18°C° 0 mm 1 mps 766 mmHg 43%
    17:00 +16°C° 0 mm 1 mps 766 mmHg 47%
    18:00 +15°C° 0 mm 1 mps 766 mmHg 51%
    19:00 +14°C° 0 mm 1 mps 766 mmHg 54%
    20:00 +13°C° 0 mm 1 mps 767 mmHg 58%
    21:00 +12°C° 0 mm 1 mps 767 mmHg 62%
    22:00 +12°C° 0 mm 1 mps 767 mmHg 67%
    23:00 +11°C° 0 mm 1 mps 767 mmHg 72%

    Day after tomorrow, 23 March, Saturday

    Time Temperature Precipitation Wind Pressure Humidity
    00:00 +10°C° 0 mm 1 mps 767 mmHg 77%
    01:00 +10°C° 0 mm 1 mps 767 mmHg 79%
    02:00 +10°C° 0 mm 1 mps 767 mmHg 82%
    03:00 +8°C° 0 mm 2 mps 767 mmHg 84%
    04:00 +9°C° 0 mm 1 mps 767 mmHg 85%
    05:00 +9°C° 0 mm 1 mps 767 mmHg 86%
    06:00 +8°C° 0 mm 1 mps 767 mmHg 86%
    07:00 +10°C° 0 mm 1 mps 768 mmHg 81%
    08:00 +11°C° 0 mm 1 mps 768 mmHg 76%
    09:00 +12°C° 0 mm 2 mps 768 mmHg 72%
    10:00 +14°C° 0 mm 1 mps 768 mmHg 66%
    11:00 +15°C° 0 mm 1 mps 768 mmHg 60%
    12:00 +18°C° 0 mm 1 mps 767 mmHg 53%
    13:00 +17°C° 0 mm 2 mps 767 mmHg 53%
    14:00 +17°C° 0 mm 2 mps 767 mmHg 53%
    15:00 +18°C° 0 mm 2 mps 767 mmHg 52%
    16:00 +17°C° 0 mm 3 mps 767 mmHg 58%
    17:00 +16°C° 0 mm 3 mps 767 mmHg 64%
    18:00 +14°C° 0 mm 4 mps 767 mmHg 70%
    19:00 +13°C° 0 mm 3 mps 767 mmHg 72%
    20:00 +13°C° 0 mm 3 mps 767 mmHg 73%
    21:00 +12°C° 0 mm 3 mps 768 mmHg 75%
    22:00 +12°C° 0 mm 3 mps 767 mmHg 77%
    23:00 +12°C° 0 mm 3 mps 767 mmHg 79%

    24 March, Sunday

    Time Temperature Precipitation Wind Pressure Humidity
    00:00 +11°C° 0 mm 3 mps 767 mmHg 81%
    01:00 +11°C° 0 mm 3 mps 767 mmHg 84%
    02:00 +10°C° 0 mm 3 mps 767 mmHg 87%
    03:00 +9°C° 0 mm 3 mps 767 mmHg 91%
    04:00 +9°C° 0 mm 3 mps 767 mmHg 90%
    05:00 +9°C° 0 mm 3 mps 767 mmHg 89%
    06:00 +9°C° 0 mm 3 mps 767 mmHg 88%
    07:00 +9°C° 0 mm 3 mps 767 mmHg 86%
    08:00 +9°C° 0 mm 3 mps 768 mmHg 84%
    09:00 +9°C° 0 mm 3 mps 768 mmHg 82%
    10:00 +10°C° 0 mm 3 mps 768 mmHg 76%
    11:00 +12°C° 0 mm 3 mps 768 mmHg 71%
    12:00 +13°C° 0 mm 3 mps 768 mmHg 65%
    13:00 +13°C° 0.1 mm 3 mps 768 mmHg 64%
    14:00 +14°C° 0.1 mm 4 mps 768 mmHg 63%
    15:00 +14°C° 0.1 mm 5 mps 767 mmHg 63%
    16:00 +13°C° 0 mm 5 mps 768 mmHg 63%
    17:00 +12°C° 0 mm 5 mps 768 mmHg 63%
    18:00 +10°C° 0 mm 5 mps 768 mmHg 63%
    19:00 +9°C° 0 mm 5 mps 769 mmHg 62%
    20:00 +8°C° 0 mm 5 mps 769 mmHg 61%
    21:00 +7°C° 0 mm 5 mps 770 mmHg 59%
    22:00 +7°C° 0 mm 5 mps 770 mmHg 61%
    23:00 +6°C° 0 mm 4 mps 770 mmHg 63%

    25 March, Monday

    Time Temperature Precipitation Wind Pressure Humidity
    00:00 +5°C° 0 mm 4 mps 770 mmHg 65%
    01:00 +5°C° 0 mm 4 mps 770 mmHg 66%
    02:00 +5°C° 0 mm 4 mps 770 mmHg 68%
    03:00 +4°C° 0 mm 4 mps 770 mmHg 69%
    04:00 +4°C° 0 mm 4 mps 770 mmHg 69%
    05:00 +4°C° 0 mm 4 mps 770 mmHg 69%
    06:00 +3°C° 0 mm 4 mps 770 mmHg 69%
    07:00 +4°C° 0 mm 4 mps 771 mmHg 63%
    08:00 +6°C° 0 mm 5 mps 771 mmHg 58%
    09:00 +7°C° 0 mm 5 mps 771 mmHg 53%
    10:00 +8°C° 0 mm 5 mps 771 mmHg 50%
    11:00 +9°C° 0 mm 5 mps 771 mmHg 47%
    12:00 +12°C° 0 mm 5 mps 771 mmHg 44%
    13:00 +12°C° 0 mm 5 mps 770 mmHg 45%
    14:00 +12°C° 0 mm 5 mps 770 mmHg 46%
    15:00 +13°C° 0 mm 5 mps 770 mmHg 48%
    16:00 +12°C° 0 mm 5 mps 770 mmHg 53%
    17:00 +11°C° 0 mm 4 mps 770 mmHg 58%
    18:00 +10°C° 0 mm 4 mps 770 mmHg 64%
    19:00 +8°C° 0 mm 4 mps 770 mmHg 67%
    20:00 +8°C° 0 mm 4 mps 771 mmHg 70%
    21:00 +7°C° 0 mm 4 mps 771 mmHg 72%
    22:00 +6°C° 0 mm 4 mps 771 mmHg 74%
    23:00 +6°C° 0 mm 4 mps 771 mmHg 76%

    26 March, Tuesday

    Time Temperature Precipitation Wind Pressure Humidity
    00:00 +5°C° 0 mm 4 mps 772 mmHg 78%
    01:00 +5°C° 0 mm 4 mps 772 mmHg 80%
    02:00 +5°C° 0 mm 4 mps 772 mmHg 81%
    03:00 +4°C° 0 mm 4 mps 771 mmHg 83%
    04:00 +4°C° 0 mm 3 mps 772 mmHg 84%
    05:00 +4°C° 0 mm 3 mps 772 mmHg 84%
    06:00 +3°C° 0 mm 3 mps 772 mmHg 85%
    07:00 +5°C° 0 mm 3 mps 772 mmHg 77%
    08:00 +6°C° 0 mm 4 mps 772 mmHg 69%
    09:00 +8°C° 0 mm 4 mps 773 mmHg 61%
    10:00 +10°C° 0 mm 4 mps 772 mmHg 56%
    11:00 +10°C° 0 mm 5 mps 772 mmHg 52%
    12:00 +13°C° 0 mm 5 mps 772 mmHg 47%
    13:00 +13°C° 0 mm 5 mps 772 mmHg 48%
    14:00 +13°C° 0 mm 5 mps 771 mmHg 48%
    15:00 +14°C° 0 mm 5 mps 771 mmHg 49%
    16:00 +13°C° 0 mm 5 mps 771 mmHg 54%
    17:00 +12°C° 0 mm 4 mps 771 mmHg 58%
    18:00 +11°C° 0 mm 4 mps 771 mmHg 63%
    19:00 +10°C° 0 mm 4 mps 771 mmHg 66%
    20:00 +10°C° 0 mm 4 mps 771 mmHg 69%
    21:00 +8°C° 0 mm 4 mps 772 mmHg 71%
    22:00 +7°C° 0 mm 4 mps 771 mmHg 73%
    23:00 +7°C° 0 mm 4 mps 771 mmHg 75%
    Show more